Location: *
(35.8942°N, 23.3025°E)
Time: 08:05:08
(UTC+00:00)

FO-29 - Visible Passes

Search period start: 01 April 2023 00:00
Search period end: 11 April 2023 00:00
Orbit: 801 x 1320 km, 98.5° (Epoch: 31 March)

Date Brightness Start Highest point End Pass type
(mag) Time Alt. Az. Time Alt. Az. Time Alt. Az.
01 Apr 11.9 02:17:47 10° NE 02:23:41 26° E 02:29:03 10° SE visible
02 Apr 10.3 03:06:48 10° NNE 03:14:07 64° E 03:20:34 10° S visible
03 Apr 12.0 02:13:00 10° NE 02:18:33 24° E 02:23:37 10° SE visible
04 Apr 10.4 03:01:52 10° NNE 03:09:01 59° E 03:15:19 10° S visible
05 Apr 12.1 02:08:15 10° NE 02:13:24 21° E 02:18:07 10° SE visible
06 Apr 10.5 02:56:57 10° NNE 03:03:56 54° E 03:10:03 10° S visible
07 Apr 12.1 02:03:32 10° NE 02:08:14 19° E 02:12:35 10° SE visible
08 Apr 10.6 02:52:02 10° NNE 02:58:49 50° E 03:04:46 10° S visible
09 Apr 12.1 01:58:51 10° NE 02:03:03 17° E 02:06:59 10° SE visible
10 Apr 10.8 02:47:07 10° NNE 02:53:41 45° E 02:59:27 10° S visible
